Location: Cherryland
(37.6794°N, 122.1033°W)
Time: 14:55:23
(UTC+00:00)

Cosmos 1833 - Pass Details

Date: 14 December 2025
Orbit: 831 x 866 km, 70.9° (Epoch: 17 January)

Event Time Altitude Azimuth Distance (km) Brightness Sun altitude
Rises 13:27:48 0° 210° (SSW) 3,368 7.2 -20.7°
Reaches altitude 10° 13:30:15 10° 214° (SW) 2,442 6.4 -20.2°
Maximum altitude 13:35:48 62° 295° (WNW) 947 4.1 -19.2°
Drops below altitude 10° 13:41:25 10° 15° (NNE) 2,479 6.6 -18.1°
Sets 13:43:56 0° 19° (NNE) 3,424 7.4 -17.6°
